Terminal Aerodrome Forecast
Issued by NWS

Home | Current Version | Previous Version | Graphics & Text | Print | Product List | Glossary On
Versions: 1 2 3 4 5 6 7 8 9 10 11 12 13 14 15 16 17 18 19 20 21 22 23 24
810
FTUS42 KMHX 220230 AAA
TAFOAJ
TAF AMD
KOAJ 220230Z 2203/2224 VRB03KT P6SM BKN040
      TEMPO 2203/2204 3SM TSRA OVC040CB
     FM220400 00000KT P6SM VCSH BKN015
     FM220600 VRB03KT P6SM BKN007
     FM221600 36005KT P6SM BKN025
     FM221900 35006KT P6SM BKN040
      AMD LTD TO CLD VIS AND WIND=

USA.gov is the U.S. government's official web portal to all federal, state and local government web resources and services.